Weather in Atherton

Australia     17°16′05″S   145°28′35″E
temp.,
°C
wind,
m/s
gust,
m/s
humid.,
%
clouds,
%
prec.,
mm/h
press.,
hPa
HPBL,
m
11 april, sun
sun1101:00+19nw119394 0.0 101213
04:00+18w119641 0.0 101111
07:00+18sw119416 0.0 101322
10:00+26sw125465 0.0 1013947
13:00+29ssw233032 0.0 10092620
16:00+28ssw243926 0.0 10081308
19:00+19ese219031 0.0 101118
22:00+18e00962 0.0 101311
12 april, mon
mon1201:00+17ssw11945 0.0 101211
04:00+17ssw11882 0.0 101112
07:00+17ssw11774 0.0 101314
10:00+26se11430 0.0 1014968
13:00+29ese12345 0.0 10112539
16:00+22ene377099 0.3 1010307
19:00+18ese25979 0.6 1013144
22:00+17se269932 0.8 1015214
13 april, tue
tue1301:00+17se249937 0.0 1014152
04:00+16se2510048 0.0 1014173
07:00+17se259944 0.0 1016223
10:00+23ese34708 0.1 1016953
13:00+26se345027 0.0 10131966
16:00+24ese45605 0.3 10121137
19:00+18se389318 0.0 1015385
22:00+17se399725 0.0 1016346
14 april, wed
wed1401:00+17se389873 0.0 1015359
04:00+17se3897100 0.0 1014395
07:00+17se399541 0.0 1015495
10:00+22ese576617 0.0 10151059
13:00+23ese466462 0.1 10141386
16:00+22se467018 0.3 10131091
19:00+17se279719 0.1 1015339
22:00+17se399531 0.1 1016481
15 april, thu
thu1501:00+17se399719 0.0 1015413
04:00+16se399412 0.0 1014432
07:00+17se39895 0.0 1015459
10:00+22ese466248 0.0 1015876
13:00+26ese335434 0.0 10121611
16:00+23se446617 0.1 1011971
19:00+18se39928 0.0 1014401
22:00+18se3109764 0.0 1015441